CHANGSHAGAOXIN (TY 4-01) (43669 NORAD) Tracking and Keplerian Element Data

This shows tracking and keplerian element data for the satellite.

Feedback or suggestion? Click here.




ElementValue
Catalog43669
NameCHANGSHAGAOXIN (TY 4-01)
Epoch Orbit236
Epoch Day317.86751248
Epoch Year2018
RAAN338.6209
Inclination97.5243
Eccentricity0.0010019
Argument of Perigee205.8866
Mean Anonmoly277.8413
Mean Motion15.16407699
Decay Rate1.154E-05
L11 43669U 18083H 18317.86751248 .00001154 00000-0 62807-4 0 9997
L22 43669 97.5243 338.6209 0010019 205.8866 277.8413 15.16407699 2368

Live tracking and technical data element details for CHANGSHAGAOXIN (TY 4-01) (NORAD 43669). CHANGSHAGAOXIN (TY 4-01) can be tracked NOW for your location showing map with azimuth and elevation plus other details from your city location.

Track the satellite on the map from your city or location and see movement details for azimuth, elevation, latitude, longitude, range, height, and movement on the map or in text.







IsCatalogInMostPopularTable: catalog: 43669, numindb: 8
Update: records affected: 1



GetName: 43669 CHANGSHAGAOXIN (TY 4-01)

Hit Count: updated at: Thu, 15 Nov 2018 03:48:03 GMT